When you browse on this site, cookies collect data to enhance your experience and personalize the content and advertising you see.
Visit our Privacy Policy to learn more. By continuing to use the site, you agree to this use of cookies and data.
  • In Austria
  • List of Countries
  • For 7 days
  • Water Temperature
  • Satellite Maps
  • Weather Map
  • News
  • Weather Widgets
  • user-avatar
    Login

    Hourly Weather San Miguel de Tucumán

    Today, 19 February, Tuesday

    Time Temperature Precipitation Wind Pressure Humidity
    00:00 +26°C° 0.1 mm 2 mps 718 mmHg 71%
    01:00 +25°C° 0.1 mm 1 mps 717 mmHg 71%
    02:00 +25°C° 0 mm 1 mps 717 mmHg 66%
    03:00 +25°C° 0 mm 1 mps 717 mmHg 66%
    04:00 +25°C° 0 mm 1 mps 717 mmHg 65%
    05:00 +24°C° 0 mm 1 mps 717 mmHg 64%
    06:00 +26°C° 0 mm 1 mps 718 mmHg 61%
    07:00 +27°C° 0 mm 1 mps 718 mmHg 57%
    08:00 +30°C° 0 mm 1 mps 719 mmHg 53%
    09:00 +32°C° 0 mm 1 mps 719 mmHg 46%
    10:00 +34°C° 0 mm 1 mps 719 mmHg 40%
    11:00 +36°C° 0 mm 1 mps 719 mmHg 33%
    12:00 +36°C° 0 mm 1 mps 719 mmHg 32%
    13:00 +38°C° 0 mm 2 mps 718 mmHg 31%
    14:00 +38°C° 0 mm 2 mps 717 mmHg 30%
    15:00 +38°C° 0 mm 2 mps 717 mmHg 33%
    16:00 +37°C° 0 mm 2 mps 716 mmHg 35%
    17:00 +36°C° 0 mm 1 mps 716 mmHg 38%
    18:00 +34°C° 0 mm 1 mps 716 mmHg 43%
    19:00 +31°C° 0 mm 1 mps 716 mmHg 49%
    20:00 +29°C° 0 mm 1 mps 716 mmHg 55%
    21:00 +29°C° 0 mm 1 mps 717 mmHg 56%
    22:00 +28°C° 0 mm 2 mps 718 mmHg 57%
    23:00 +28°C° 0 mm 2 mps 718 mmHg 59%

    Tomorrow, 20 February, Wednesday

    Time Temperature Precipitation Wind Pressure Humidity
    00:00 +28°C° 0 mm 2 mps 718 mmHg 60%
    01:00 +27°C° 0 mm 1 mps 718 mmHg 60%
    02:00 +27°C° 0 mm 1 mps 718 mmHg 61%
    03:00 +27°C° 0.1 mm 1 mps 718 mmHg 62%
    04:00 +26°C° 0.1 mm 1 mps 718 mmHg 62%
    05:00 +26°C° 0.1 mm 1 mps 718 mmHg 63%
    06:00 +27°C° 0 mm 1 mps 718 mmHg 60%
    07:00 +28°C° 0 mm 1 mps 718 mmHg 58%
    08:00 +30°C° 0 mm 1 mps 718 mmHg 55%
    09:00 +32°C° 0 mm 1 mps 718 mmHg 50%
    10:00 +35°C° 0 mm 2 mps 718 mmHg 44%
    11:00 +37°C° 0 mm 2 mps 718 mmHg 39%
    12:00 +38°C° 0 mm 3 mps 718 mmHg 36%
    13:00 +39°C° 0 mm 3 mps 717 mmHg 34%
    14:00 +41°C° 0 mm 4 mps 716 mmHg 31%
    15:00 +39°C° 0 mm 3 mps 716 mmHg 32%
    16:00 +39°C° 0 mm 3 mps 715 mmHg 33%
    17:00 +38°C° 0 mm 3 mps 714 mmHg 35%
    18:00 +36°C° 0 mm 3 mps 715 mmHg 40%
    19:00 +34°C° 0 mm 2 mps 715 mmHg 46%
    20:00 +30°C° 0 mm 2 mps 715 mmHg 51%
    21:00 +30°C° 0 mm 2 mps 716 mmHg 51%
    22:00 +29°C° 0 mm 2 mps 716 mmHg 52%
    23:00 +29°C° 0 mm 2 mps 717 mmHg 52%

    Day after tomorrow, 21 February, Thursday

    Time Temperature Precipitation Wind Pressure Humidity
    00:00 +28°C° 0 mm 2 mps 717 mmHg 53%
    01:00 +28°C° 0 mm 2 mps 716 mmHg 55%
    02:00 +27°C° 0 mm 1 mps 716 mmHg 56%
    03:00 +27°C° 0 mm 1 mps 716 mmHg 57%
    04:00 +27°C° 0 mm 1 mps 716 mmHg 58%
    05:00 +26°C° 0 mm 1 mps 715 mmHg 60%
    06:00 +28°C° 0 mm 1 mps 716 mmHg 58%
    07:00 +29°C° 0 mm 1 mps 716 mmHg 56%
    08:00 +28°C° 0 mm 0 mps 717 mmHg 54%
    09:00 +32°C° 0 mm 1 mps 717 mmHg 48%
    10:00 +35°C° 0 mm 1 mps 717 mmHg 42%
    11:00 +38°C° 0 mm 2 mps 718 mmHg 36%
    12:00 +39°C° 0 mm 2 mps 717 mmHg 33%
    13:00 +40°C° 0 mm 3 mps 717 mmHg 31%
    14:00 +43°C° 0 mm 3 mps 716 mmHg 29%
    15:00 +42°C° 0 mm 3 mps 716 mmHg 30%
    16:00 +42°C° 0 mm 3 mps 715 mmHg 32%
    17:00 +40°C° 0 mm 3 mps 715 mmHg 34%
    18:00 +38°C° 0 mm 2 mps 715 mmHg 40%
    19:00 +35°C° 0 mm 2 mps 716 mmHg 46%
    20:00 +32°C° 0 mm 2 mps 716 mmHg 53%
    21:00 +31°C° 0.1 mm 2 mps 717 mmHg 54%
    22:00 +31°C° 0.1 mm 2 mps 717 mmHg 56%
    23:00 +30°C° 0.1 mm 2 mps 718 mmHg 58%

    22 February, Friday

    Time Temperature Precipitation Wind Pressure Humidity
    00:00 +30°C° 0 mm 2 mps 717 mmHg 58%
    01:00 +30°C° 0 mm 2 mps 717 mmHg 59%
    02:00 +29°C° 0 mm 2 mps 717 mmHg 59%
    03:00 +29°C° 0 mm 1 mps 717 mmHg 60%
    04:00 +28°C° 0 mm 1 mps 716 mmHg 61%
    05:00 +28°C° 0 mm 1 mps 716 mmHg 61%
    06:00 +29°C° 0 mm 1 mps 717 mmHg 58%
    07:00 +30°C° 0 mm 1 mps 717 mmHg 54%
    08:00 +32°C° 0 mm 1 mps 718 mmHg 51%
    09:00 +34°C° 0 mm 1 mps 718 mmHg 45%
    10:00 +36°C° 0 mm 1 mps 718 mmHg 39%
    11:00 +40°C° 0 mm 1 mps 718 mmHg 33%
    12:00 +41°C° 0 mm 2 mps 718 mmHg 31%
    13:00 +42°C° 0 mm 2 mps 717 mmHg 28%
    14:00 +43°C° 0 mm 2 mps 717 mmHg 26%
    15:00 +43°C° 0 mm 2 mps 716 mmHg 27%
    16:00 +42°C° 0 mm 2 mps 716 mmHg 28%
    17:00 +42°C° 0 mm 2 mps 715 mmHg 29%
    18:00 +39°C° 0 mm 2 mps 715 mmHg 35%
    19:00 +36°C° 0 mm 2 mps 716 mmHg 41%
    20:00 +34°C° 0 mm 2 mps 716 mmHg 47%
    21:00 +32°C° 0 mm 2 mps 716 mmHg 48%
    22:00 +32°C° 0 mm 2 mps 717 mmHg 50%
    23:00 +31°C° 0 mm 2 mps 717 mmHg 51%

    23 February, Saturday

    Time Temperature Precipitation Wind Pressure Humidity
    00:00 +31°C° 0 mm 2 mps 716 mmHg 52%
    01:00 +30°C° 0 mm 2 mps 716 mmHg 54%
    02:00 +30°C° 0 mm 1 mps 715 mmHg 55%
    03:00 +29°C° 0 mm 1 mps 715 mmHg 55%
    04:00 +29°C° 0 mm 1 mps 715 mmHg 56%
    05:00 +28°C° 0 mm 1 mps 714 mmHg 57%
    06:00 +30°C° 0 mm 1 mps 715 mmHg 54%
    07:00 +31°C° 0 mm 1 mps 715 mmHg 51%
    08:00 +32°C° 0 mm 1 mps 716 mmHg 48%
    09:00 +34°C° 0 mm 1 mps 715 mmHg 43%
    10:00 +37°C° 0 mm 1 mps 715 mmHg 38%
    11:00 +40°C° 0 mm 1 mps 715 mmHg 32%
    12:00 +41°C° 0 mm 1 mps 715 mmHg 30%
    13:00 +42°C° 0 mm 2 mps 714 mmHg 28%
    14:00 +45°C° 0 mm 2 mps 713 mmHg 26%
    15:00 +43°C° 0 mm 2 mps 712 mmHg 27%
    16:00 +43°C° 0 mm 2 mps 712 mmHg 28%
    17:00 +42°C° 0 mm 2 mps 711 mmHg 29%
    18:00 +39°C° 0 mm 2 mps 711 mmHg 35%
    19:00 +36°C° 0 mm 1 mps 712 mmHg 42%
    20:00 +33°C° 0 mm 1 mps 712 mmHg 48%
    21:00 +32°C° 0 mm 1 mps 712 mmHg 50%
    22:00 +32°C° 0 mm 2 mps 713 mmHg 51%
    23:00 +31°C° 0 mm 2 mps 713 mmHg 53%

    24 February, Sunday

    Time Temperature Precipitation Wind Pressure Humidity
    00:00 +31°C° 0 mm 2 mps 713 mmHg 53%
    01:00 +30°C° 0 mm 1 mps 712 mmHg 54%
    02:00 +30°C° 0 mm 1 mps 712 mmHg 54%
    03:00 +29°C° 0 mm 2 mps 712 mmHg 55%
    04:00 +29°C° 0 mm 2 mps 712 mmHg 57%
    05:00 +28°C° 0 mm 3 mps 712 mmHg 58%
    06:00 +29°C° 0 mm 3 mps 712 mmHg 60%
    07:00 +29°C° 0 mm 3 mps 713 mmHg 62%
    08:00 +29°C° 0 mm 3 mps 714 mmHg 63%
    09:00 +31°C° 0 mm 3 mps 714 mmHg 61%
    10:00 +33°C° 0 mm 3 mps 714 mmHg 58%
    11:00 +35°C° 0 mm 3 mps 714 mmHg 55%
    12:00 +35°C° 0 mm 3 mps 714 mmHg 52%
    13:00 +36°C° 0 mm 3 mps 713 mmHg 50%
    14:00 +37°C° 0 mm 3 mps 713 mmHg 47%
    15:00 +37°C° 0.1 mm 3 mps 713 mmHg 48%
    16:00 +37°C° 0.1 mm 2 mps 712 mmHg 49%
    17:00 +36°C° 0.1 mm 2 mps 712 mmHg 49%
    18:00 +35°C° 0.1 mm 2 mps 713 mmHg 55%
    19:00 +32°C° 0.1 mm 2 mps 713 mmHg 61%
    20:00 +30°C° 0.1 mm 1 mps 714 mmHg 66%
    21:00 +29°C° 0.8 mm 1 mps 714 mmHg 72%
    22:00 +28°C° 0.8 mm 1 mps 714 mmHg 77%
    23:00 +27°C° 0.8 mm 1 mps 715 mmHg 83%
    Show more